TimeCST,TemperatureF,Dew PointF,Humidity,Sea Level PressureIn,VisibilityMPH,Wind Direction,Wind SpeedMPH,Gust SpeedMPH,PrecipitationIn,Events,Conditions,WindDirDegrees,DateUTC
12:15 AM,62.6,48.2,59,30.35,10.0,East,15.0,-,N/A,,Overcast,80,2013-12-12 06:15:00
12:35 AM,62.6,50.0,63,30.35,10.0,East,18.4,-,N/A,,Overcast,80,2013-12-12 06:35:00
12:55 AM,62.6,50.0,63,30.35,10.0,East,17.3,24.2,N/A,,Overcast,90,2013-12-12 06:55:00
1:15 AM,62.6,51.8,68,30.35,10.0,ENE,17.3,-,N/A,,Overcast,70,2013-12-12 07:15:00
1:35 AM,60.8,51.8,72,30.35,10.0,East,19.6,-,N/A,,Overcast,80,2013-12-12 07:35:00
1:55 AM,60.8,51.8,72,30.34,10.0,East,18.4,-,N/A,,Overcast,80,2013-12-12 07:55:00
2:15 AM,60.8,50.0,68,30.35,10.0,East,19.6,-,N/A,,Overcast,80,2013-12-12 08:15:00
2:35 AM,60.8,50.0,68,30.35,10.0,East,19.6,-,N/A,,Overcast,80,2013-12-12 08:35:00
2:55 AM,60.8,50.0,68,30.35,10.0,East,18.4,-,N/A,,Overcast,80,2013-12-12 08:55:00
3:15 AM,60.8,50.0,68,30.36,10.0,East,20.7,-,N/A,,Overcast,80,2013-12-12 09:15:00
3:35 AM,60.8,50.0,68,30.35,10.0,East,19.6,-,N/A,,Overcast,80,2013-12-12 09:35:00
3:55 AM,60.8,48.2,63,30.35,10.0,East,20.7,27.6,N/A,,Overcast,90,2013-12-12 09:55:00
4:15 AM,60.8,46.4,59,30.35,10.0,East,23.0,-,N/A,,Scattered Clouds,90,2013-12-12 10:15:00
4:35 AM,60.8,44.6,55,30.35,10.0,East,21.9,-,N/A,,Mostly Cloudy,80,2013-12-12 10:35:00
4:55 AM,60.8,46.4,59,30.35,10.0,East,21.9,28.8,N/A,,Mostly Cloudy,90,2013-12-12 10:55:00
5:15 AM,60.8,46.4,59,30.36,10.0,East,25.3,-,N/A,,Mostly Cloudy,80,2013-12-12 11:15:00
5:35 AM,60.8,46.4,59,30.37,10.0,East,25.3,-,N/A,,Scattered Clouds,80,2013-12-12 11:35:00
5:55 AM,59.0,46.4,63,30.38,10.0,East,25.3,-,N/A,,Scattered Clouds,80,2013-12-12 11:55:00
6:15 AM,59.0,46.4,63,30.39,10.0,East,26.5,32.2,N/A,,Scattered Clouds,80,2013-12-12 12:15:00
6:35 AM,59.0,46.4,63,30.39,10.0,East,26.5,-,N/A,,Mostly Cloudy,80,2013-12-12 12:35:00
6:55 AM,59.0,44.6,59,30.40,10.0,East,26.5,-,N/A,,Overcast,90,2013-12-12 12:55:00
7:15 AM,59.0,44.6,59,30.40,10.0,East,27.6,35.7,N/A,,Mostly Cloudy,90,2013-12-12 13:15:00
7:35 AM,59.0,44.6,59,30.41,10.0,East,24.2,32.2,N/A,,Partly Cloudy,90,2013-12-12 13:35:00
7:55 AM,59.0,44.6,59,30.41,10.0,East,27.6,-,N/A,,Clear,90,2013-12-12 13:55:00
8:15 AM,59.0,44.6,59,30.42,10.0,East,24.2,31.1,N/A,,Clear,90,2013-12-12 14:15:00
8:30 AM,59.0,44.6,59,30.42,10.0,East,25.3,-,N/A,,Clear,100,2013-12-12 14:30:00
9:35 AM,60.8,42.8,52,30.42,10.0,East,25.3,32.2,N/A,,Clear,90,2013-12-12 15:35:00
9:55 AM,59.0,42.8,55,30.43,10.0,East,27.6,-,N/A,,Clear,100,2013-12-12 15:55:00
10:15 AM,59.0,42.8,55,30.43,10.0,East,25.3,-,N/A,,Clear,100,2013-12-12 16:15:00
10:35 AM,59.0,39.2,48,30.42,10.0,East,27.6,-,N/A,,Clear,100,2013-12-12 16:35:00
10:55 AM,59.0,42.8,55,30.42,10.0,East,24.2,31.1,N/A,,Clear,90,2013-12-12 16:55:00
11:15 AM,59.0,42.8,55,30.41,10.0,East,26.5,-,N/A,,Clear,100,2013-12-12 17:15:00
11:35 AM,59.0,41.0,51,30.41,10.0,East,24.2,-,N/A,,Clear,100,2013-12-12 17:35:00
11:55 AM,59.0,42.8,55,30.40,10.0,East,24.2,-,N/A,,Clear,90,2013-12-12 17:55:00
12:15 PM,59.0,42.8,55,30.39,10.0,East,23.0,28.8,N/A,,Clear,90,2013-12-12 18:15:00
12:35 PM,59.0,41.0,51,30.38,10.0,East,21.9,27.6,N/A,,Clear,90,2013-12-12 18:35:00
12:55 PM,59.0,42.8,55,30.37,10.0,East,21.9,27.6,N/A,,Clear,90,2013-12-12 18:55:00
1:15 PM,57.2,42.8,59,30.36,10.0,East,20.7,-,N/A,,Clear,90,2013-12-12 19:15:00
1:35 PM,57.2,42.8,59,30.36,10.0,East,23.0,-,N/A,,Clear,80,2013-12-12 19:35:00
1:55 PM,57.2,42.8,59,30.36,10.0,East,18.4,26.5,N/A,,Clear,80,2013-12-12 19:55:00
2:15 PM,57.2,44.6,63,30.36,10.0,East,20.7,-,N/A,,Clear,80,2013-12-12 20:15:00
2:35 PM,57.2,42.8,59,30.36,10.0,East,20.7,-,N/A,,Clear,80,2013-12-12 20:35:00
2:55 PM,57.2,44.6,63,30.36,10.0,East,20.7,-,N/A,,Clear,80,2013-12-12 20:55:00
3:15 PM,57.2,44.6,63,30.36,10.0,East,20.7,26.5,N/A,,Clear,80,2013-12-12 21:15:00
3:35 PM,57.2,44.6,63,30.36,10.0,East,23.0,-,N/A,,Clear,80,2013-12-12 21:35:00
3:55 PM,57.2,41.0,55,30.36,10.0,East,25.3,-,N/A,,Clear,80,2013-12-12 21:55:00
4:15 PM,57.2,41.0,55,30.36,10.0,ENE,24.2,-,N/A,,Clear,70,2013-12-12 22:15:00
4:35 PM,59.0,39.2,48,30.37,10.0,East,25.3,-,N/A,,Clear,80,2013-12-12 22:35:00
4:55 PM,59.0,41.0,51,30.36,10.0,ENE,20.7,26.5,N/A,,Clear,70,2013-12-12 22:55:00
5:15 PM,59.0,42.8,55,30.36,10.0,East,24.2,-,N/A,,Clear,80,2013-12-12 23:15:00
5:35 PM,57.2,41.0,55,30.37,10.0,East,23.0,-,N/A,,Clear,80,2013-12-12 23:35:00
5:55 PM,59.0,41.0,51,30.36,10.0,East,23.0,-,N/A,,Clear,80,2013-12-12 23:55:00
6:15 PM,59.0,41.0,51,30.36,10.0,East,26.5,-,N/A,,Clear,90,2013-12-13 00:15:00
6:35 PM,59.0,41.0,51,30.37,10.0,East,24.2,-,N/A,,Clear,80,2013-12-13 00:35:00
6:55 PM,59.0,41.0,51,30.37,10.0,East,21.9,-,N/A,,Clear,80,2013-12-13 00:55:00
7:15 PM,59.0,41.0,51,30.36,10.0,East,23.0,-,N/A,,Clear,90,2013-12-13 01:15:00
7:35 PM,59.0,39.2,48,30.36,10.0,East,21.9,-,N/A,,Clear,100,2013-12-13 01:35:00
7:55 PM,59.0,41.0,51,30.37,10.0,East,21.9,29.9,N/A,,Clear,90,2013-12-13 01:55:00
8:15 PM,59.0,39.2,48,30.37,10.0,East,23.0,-,N/A,,Clear,100,2013-12-13 02:15:00
8:35 PM,59.0,41.0,51,30.36,10.0,ESE,23.0,29.9,N/A,,Clear,110,2013-12-13 02:35:00
8:55 PM,59.0,39.2,48,30.36,10.0,East,21.9,27.6,N/A,,Clear,100,2013-12-13 02:55:00
9:15 PM,57.2,39.2,51,30.36,10.0,ESE,24.2,-,N/A,,Clear,110,2013-12-13 03:15:00
9:35 PM,57.2,41.0,55,30.36,10.0,ESE,23.0,-,N/A,,Clear,110,2013-12-13 03:35:00
9:55 PM,57.2,41.0,55,30.35,10.0,ESE,19.6,-,N/A,,Clear,110,2013-12-13 03:55:00
10:15 PM,59.0,42.8,55,30.35,10.0,ESE,18.4,25.3,N/A,,Clear,120,2013-12-13 04:15:00
10:35 PM,59.0,42.8,55,30.34,10.0,ESE,19.6,-,N/A,,Clear,110,2013-12-13 04:35:00
10:55 PM,59.0,42.8,55,30.33,10.0,ESE,20.7,-,N/A,,Clear,120,2013-12-13 04:55:00
11:15 PM,59.0,42.8,55,30.33,10.0,ESE,19.6,25.3,N/A,,Clear,110,2013-12-13 05:15:00
11:35 PM,59.0,42.8,55,30.33,10.0,ESE,18.4,27.6,N/A,,Clear,120,2013-12-13 05:35:00
11:55 PM,59.0,42.8,55,30.32,10.0,SE,18.4,-,N/A,,Clear,140,2013-12-13 05:55:00